{"data":{"norad_id":69655,"intl_designator":"2026-143G","name":"STARLINK-37884","alt_names":[],"object_type":"PAYLOAD","status":"ACTIVE","operator":null,"country":"US","launch_date":"2026-06-21","launch_site_code":"AFWTR","launch_vehicle":null,"mission":null,"orbit_class":"UNKNOWN","rcs_meters":null,"size_class":null,"mass_kg":null,"dimensions":null,"purposes":["comms"],"wikipedia_slug":null,"has_3d_model":false,"image_url":null,"decayed_at":null,"tle_current":{"epoch":"2026-09-19T08:41:56.442048Z","epoch_age_seconds":119956,"freshness":"FRESH","line1":"1 69655U 26143G   26262.36245882  .00018472  00000+0  57307-3 0  9999","line2":"2 69655  97.2844 305.4974 0000968  82.3951 277.7401 15.33446673 15039","mean_motion":15.33446673,"eccentricity":9.68e-5,"inclination_deg":97.2844,"raan_deg":305.4974,"arg_perigee_deg":82.3951,"mean_anomaly_deg":277.7401,"bstar":0.00057307,"rev_number":1503,"period_min":93.906102204573,"perigee_km":464.87572905266,"apogee_km":466.20066457076,"semimajor_km":6843.6751968117,"source":"CELESTRAK","updated_at":"2026-09-20T09:00:44.247921Z"}}}